Location: Six Mile Lake
(44.9000°N, 79.7170°W)
Time: 01:28:48
(UTC-04:00)

O/OREOS (USA 219) - Pass Details

Date: 01 July 2022
Orbit: 621 x 646 km, 72.0° (Epoch: 22 May)

Event Time Altitude Azimuth Distance (km) Brightness Sun altitude
Rises 23:57:18 0° 351° (N) 2,962 ? -19.3°
Reaches altitude 10° 00:01:15 10° 25° (NNE) 2,051 ? -19.5°
Maximum altitude 00:02:49 12° 45° (NE) 1,948 ? -19.6°
Drops below altitude 10° 00:04:24 10° 65° (ENE) 2,049 ? -19.7°
Enters shadow 00:06:48 - 88° (E) 2,527 ? -19.8°
